Weather History for Beverly, MA

Change the Weather History Date:

Wednesday, July 17, 2013

  Actual Average Record
Temperature  
Mean Temperature 78 °F -  
Max Temperature 88 °F 77 °F 100 °F (1980)
Min Temperature 68 °F 58 °F 54 °F (2002)
Cooling Degree Days 13    
Growing Degree Days 28 (Base 50)    
Moisture  
Dew Point 70 °F    
Average Humidity 72    
Maximum Humidity 90    
Minimum Humidity 59    
Precipitation  
Precipitation 0.00 in - - ()
Sea Level Pressure  
Sea Level Pressure 30.08 in    
Wind  
Wind Speed 4 mph (SSE)    
Max Wind Speed 12 mph    
Max Gust Speed 17 mph    
Visibility 10 miles    
Events      
Averages and records for this station are not official NWS values.
T = Trace of Precipitation, MM = Missing Value Source: NWS Daily Summary

Daily Weather History Graph

Daily Weather History Graph

Search for Another Location

Airport:

Trip Planner

Search our weather history database for the weather conditions in past years. The results will help you decide how hot, cold, wet, or windy it might be!

Date:

Astronomy

Jul. 17, 2013 Rise Set
Actual Time 5:21 AM EDT 8:17 PM EDT
Civil Twilight 4:47 AM EDT 8:51 PM EDT
Nautical Twilight 4:05 AM EDT 9:33 PM EDT
Astronomical Twilight 3:15 AM EDT 10:23 PM EDT
Moon 3:01 PM EDT (7/17) 12:28 AM EDT (7/17)
Length of Visible Light 16h 03m
Length of Day
14h 56m
Waxing Gibbous, 67% of the Moon is Illuminated
Jul 17
Waxing Gibbous
Jul 22
Full
Jul 29
Last Quarter
Aug 6
New
Aug 14
First Quarter

Hourly Weather History & Observations

Time (EDT) Temp. Heat Index Dew Point Humidity Pressure Visibility Wind Dir Wind Speed Gust Speed Precip Events Conditions
12:53 AM 71.1 °F - 64.9 °F 81% 30.13 in 10.0 mi Calm Calm - N/A   Clear
1:53 AM 71.1 °F - 66.0 °F 84% 30.13 in 10.0 mi Calm Calm - N/A   Clear
2:53 AM 69.1 °F - 64.9 °F 87% 30.12 in 10.0 mi Calm Calm - N/A   Clear
3:53 AM 69.1 °F - 64.9 °F 87% 30.13 in 10.0 mi Calm Calm - N/A   Partly Cloudy
4:53 AM 68.0 °F - 64.9 °F 90% 30.14 in 10.0 mi Calm Calm - N/A   Clear
5:53 AM 70.0 °F - 66.0 °F 87% 30.16 in 10.0 mi Calm Calm - N/A   Clear
6:53 AM 73.9 °F - 69.1 °F 85% 30.15 in 9.0 mi SE 3.5 mph - N/A   Clear
7:53 AM 77.0 °F - 70.0 °F 79% 30.16 in 10.0 mi ESE 5.8 mph - N/A   Clear
8:53 AM 80.1 °F 83.2 °F 70.0 °F 71% 30.16 in 10.0 mi SE 4.6 mph - N/A   Clear
9:53 AM 82.0 °F 86.7 °F 72.0 °F 71% 30.15 in 10.0 mi South 4.6 mph - N/A   Clear
10:53 AM 82.9 °F 88.0 °F 72.0 °F 69% 30.14 in 10.0 mi SSE 5.8 mph - N/A   Scattered Clouds
11:53 AM 86.0 °F 92.2 °F 72.0 °F 63% 30.12 in 10.0 mi SE 9.2 mph - N/A   Scattered Clouds
12:53 PM 88.0 °F 95.6 °F 73.0 °F 61% 30.10 in 10.0 mi SSE 8.1 mph - N/A   Scattered Clouds
1:53 PM 88.0 °F 95.6 °F 73.0 °F 61% 30.09 in 10.0 mi Variable 6.9 mph - N/A   Scattered Clouds
2:53 PM 86.0 °F 91.5 °F 71.1 °F 61% 30.07 in 10.0 mi SE 10.4 mph - N/A   Clear
3:53 PM 86.0 °F 90.7 °F 70.0 °F 59% 30.04 in 10.0 mi SSE 11.5 mph - N/A   Clear
4:53 PM 86.0 °F 91.5 °F 71.1 °F 61% 30.02 in 10.0 mi SE 9.2 mph - N/A   Clear
5:53 PM 87.1 °F 93.6 °F 72.0 °F 61% 30.00 in 10.0 mi SSE 6.9 mph - N/A   Partly Cloudy
6:53 PM 87.1 °F 93.6 °F 72.0 °F 61% 29.97 in 10.0 mi South 5.8 mph - N/A   Partly Cloudy
7:53 PM 86.0 °F 91.5 °F 71.1 °F 61% 29.99 in 10.0 mi SW 6.9 mph - N/A   Partly Cloudy
8:53 PM 84.0 °F 89.6 °F 72.0 °F 67% 29.99 in 10.0 mi SW 10.4 mph 17.3 mph N/A   Clear
9:53 PM 82.0 °F 86.7 °F 72.0 °F 71% 29.99 in 10.0 mi SW 8.1 mph - N/A   Clear
10:53 PM 82.0 °F 87.4 °F 73.0 °F 74% 29.99 in 10.0 mi SW 10.4 mph - N/A   Mostly Cloudy
11:53 PM 81.0 °F 85.2 °F 72.0 °F 74% 29.96 in 10.0 mi SSW 10.4 mph - N/A   Partly Cloudy